www.pogodaiklimat.ru
ПОГОДА в Кигали

Архив погоды в Кигали (Руанда)

Время
(UTC), дата
22 7.08
23 7.08
00 8.08
01 8.08
02 8.08
03 8.08
06 8.08
07 8.08
08 8.08
09 8.08
10 8.08
11 8.08
12 8.08
13 8.08
14 8.08
15 8.08
16 8.08
17 8.08
18 8.08
19 8.08
20 8.08
21 8.08
22 8.08
23 8.08
00 9.08
01 9.08
02 9.08
03 9.08
04 9.08
05 9.08
06 9.08
07 9.08
08 9.08
09 9.08
10 9.08
11 9.08
12 9.08
13 9.08
14 9.08
15 9.08
16 9.08
17 9.08
18 9.08
19 9.08
20 9.08
21 9.08
22 9.08
23 9.08
00 10.08
01 10.08
02 10.08
03 10.08
04 10.08
05 10.08
06 10.08
07 10.08
08 10.08
09 10.08
10 10.08
11 10.08
12 10.08
13 10.08
14 10.08
15 10.08
16 10.08
17 10.08
18 10.08
19 10.08
20 10.08
21 10.08
22 10.08
23 10.08
00 11.08
01 11.08
02 11.08
03 11.08
04 11.08
05 11.08
06 11.08
07 11.08
08 11.08
09 11.08
10 11.08
11 11.08
12 11.08
13 11.08
14 11.08
15 11.08
16 11.08
17 11.08
18 11.08
19 11.08
20 11.08
21 11.08
22 11.08
23 11.08
00 12.08
01 12.08
02 12.08
03 12.08
04 12.08
05 12.08
06 12.08
07 12.08
08 12.08
09 12.08
10 12.08
11 12.08
12 12.08
13 12.08
14 12.08
15 12.08
16 12.08
17 12.08
18 12.08
19 12.08
20 12.08
21 12.08
22 12.08
23 12.08
00 13.08
01 13.08
02 13.08
03 13.08
04 13.08
05 13.08
06 13.08
07 13.08
08 13.08
09 13.08
10 13.08
11 13.08
12 13.08
13 13.08
14 13.08
15 13.08
16 13.08
17 13.08
18 13.08
19 13.08
20 13.08
21 13.08
22 13.08
23 13.08
00 14.08
01 14.08
02 14.08
03 14.08
04 14.08
05 14.08
06 14.08
07 14.08
08 14.08
09 14.08
10 14.08
11 14.08
12 14.08
13 14.08
14 14.08
15 14.08
16 14.08
17 14.08
18 14.08
19 14.08
23 31.08
Ветер
(напр.,м/с)
Видим. Явления Облачность Т
(С)
Тd
(С)
f
(%)
Тe
(С)
Тes
(С)
Комфортность P
(гПа)
Po
(гПа)
Тmin
(С)
Tmax
(С)
R
(мм)
R24
(мм)
S
(см)
ЮЗ 2 10 км 2/2 780 м +21.0 +9.0 46 +23 +23 комфорт 1019.0 856.6
нст 1 10 км ясно +20.0 +9.0 49 +22 +22 комфорт 1019.0 856.1
СЗ 2 10 км 1/0 600 м
[Ci sp]
+18.2 +10.2 60 +19 +19 1018.0 850.9
СЗ 3 10 км ясно +18.0 +10.0 59 +18 +18 1018.0 854.3
З 3 10 км ясно +17.0 +10.0 63 +17 +17 1018.0 853.7
СЗ 3 10 км ясно +16.0 +10.0 68 +16 +16 1018.0 853.2
штиль 0 10 км 3/0
[Ci sp]
+20.2 +9.9 52 +21 +28 комфорт 1021.0 852.8 +15.9 +27.1
ЮВ 2 10 км ясно +22.0 +10.0 46 +24 +34 комфорт 1021.0 858.9
нст 3 10 км ясно +24.0 +8.0 36 +24 +37 комфорт 1021.0 859.8
ЮВ 3 10 км ясно +20.2 +9.9 52 +22 +37 комфорт 1021.0 852.2
нст 3 10 км 2/2 750 м +25.0 +7.0 32 +25 +38 комфорт 1020.0 859.4
нст 3 10 км 2/2 750 м +26.0 +7.0 30 +26 +38 жарко 1019.0 859.1
нст 3 10 км 5/3 600 м
[Cu med, cong Ci sp]
+28.0 +8.0 28 +28 +38 жарко 1018.0 859.3
нст 2 10 км 2/2 750 м +28.0 +8.0 28 +28 +35 жарко 1017.0 858.4
С 2 10 км 2/2 780 м +28.0 +6.0 25 +27 +31 жарко 1017.0 858.3
ЮВ 2 10 км 2/2 780 м +27.0 +6.0 26 +26 +27 жарко 1017.0 857.8
Ю 2 10 км 2/2 780 м +26.0 +7.0 30 +26 +26 жарко 1018.0 858.2
В 3 10 км 2/2 780 м +26.0 +6.0 28 +26 +26 жарко 1018.0 858.2
СЗ 2 10 км 2/2 780 м +25.0 +7.0 32 +25 +25 комфорт 1019.0 858.6
ЮВ 3 10 км 5/2 780 м
[Ac]
+22.0 +8.0 41 +23 +23 комфорт 1020.0 857.9
ЮВ 2 10 км 5/2 780 м
[Ac]
+23.0 +7.0 36 +24 +24 комфорт 1021.0 859.2
ЮЗ 2 10 км 6/3 800 м
[Cu med, cong Ac trans]
+21.8 +8.1 41 +23 +23 комфорт 1021.0 853.0
З 2 10 км 5/2 780 м
[Ac]
+21.0 +9.0 46 +23 +23 комфорт 1020.0 857.5
З 2 10 км 5/2 780 м
[Ac]
+20.0 +9.0 49 +22 +22 комфорт 1020.0 856.9
С 3 10 км 5/3 800 м
[Cu med, cong Ac trans]
+18.0 +9.0 56 +18 +18 1020.0 855.9
СЗ 2 10 км 2/2 780 м +18.0 +10.0 59 +19 +19 1020.0 855.9
СЗ 3 10 км 2/2 780 м +17.0 +10.0 63 +17 +17 1020.0 855.4
СЗ 3 10 км 4/1 800 м
[Cu med, cong Ac trans]
+16.6 +8.9 59 +17 +17 1020.0 852.0
нст 1 10 км 2/2 780 м +17.0 +10.0 63 +18 +18 1020.0 855.4
С 2 10 км 2/2 780 м +16.0 +10.0 68 +16 +17 1021.0 855.7
СЗ 2 10 км 3/1 600 м
[Cu med, cong Ac trans]
+19.0 +9.0 52 +20 +24 1021.0 857.3 +15.4 +27.9
нст 1 10 км 2/2 780 м +21.0 +9.0 46 +24 +33 комфорт 1022.0 859.1
Ю 4 10 км 2/2 780 м +24.0 +6.0 31 +24 +32 комфорт 1022.0 860.6
ЮВ 2 10 км 4/1 600 м
[Cu med, cong Ac trans]
+25.3 +7.9 33 +25 +39 комфорт 1021.0 853.1
ЮВ 2 10 км ясно +26.0 +6.0 28 +26 +46 жарко 1019.0 859.0
нст 3 10 км ясно +27.0 +7.0 28 +27 +42 жарко 1018.0 858.7
Ю 3 10 км ясно +28.0 +7.0 26 +27 +40 жарко 1017.0 850.0
нст 1 10 км ясно +28.0 +6.0 25 +27 +39 жарко 1017.0 858.3
Ю 3 10 км ясно +28.0 +7.0 26 +27 +31 жарко 1017.0 858.4
нст 2 10 км ясно +28.0 +6.0 25 +27 +28 жарко 1017.0 858.3
Ю 3 10 км ясно +26.0 +7.0 30 +26 +26 жарко 1017.0 857.4
ЮВ 3 10 км ясно +26.0 +6.0 28 +26 +26 жарко 1018.0 858.2
СВ 2 10 км 1/0
[Ci sp]
+25.0 +6.0 30 +25 +25 комфорт 1018.0 857.7 +29.3
С 3 10 км 2/2 780 м +24.0 +7.0 34 +24 +24 комфорт 1020.0 858.9
СВ 4 10 км 2/2 780 м +23.0 +8.0 38 +24 +24 комфорт 1020.0 858.4
СЗ 2 10 км 4/1 600 м
[Sc Ac trans]
+21.5 +8.9 43 +23 +23 комфорт 1021.0 852.9
С 2 10 км 5/2 780 м
[Ac]
+21.0 +10.0 49 +23 +23 комфорт 1021.0 858.3
нст 1 10 км 5/2 780 м
[Ac]
+21.0 +10.0 49 +24 +24 комфорт 1020.0 857.5
С 3 10 км 6/3 800 м
[Cu med, cong Ac trans]
+19.0 +10.0 56 +20 +20 1020.0 856.5
С 1 10 км 5/2 780 м
[Ac]
+20.0 +10.0 53 +22 +22 комфорт 1019.0 856.1
СЗ 3 10 км 5/2 780 м
[Ac]
+18.0 +10.0 59 +18 +18 1019.0 855.1
З 2 10 км 6/3 600 м
[Cu med, cong Ac trans]
+17.5 +10.3 59 +19 +19 1020.0 851.8
ЮЗ 1 10 км 5/2 780 м
[Ac]
+17.0 +10.0 63 +18 +18 1020.0 855.4
В 2 10 км ясно +17.0 +11.0 68 +17 +19 1021.0 856.3
нст 1 8000 м 4/0
[Ci sp]
+18.0 +11.0 64 +19 +19 1021.0 856.8 +17.0 +29.3
нст 1 8000 м ясно +21.0 +10.0 49 +24 +24 комфорт 1022.0 859.2
Ю 3 10 км ясно +23.0 +9.0 41 +24 +37 комфорт 1022.0 860.2
Ю 4 10 км 3/0
[Ci sp]
+25.0 +8.0 34 +25 +38 комфорт 1021.0 860.3
ЮВ 4 10 км ясно +26.0 +9.0 34 +26 +40 жарко 1021.0 860.8
Ю 4 10 км ясно +26.0 +8.0 32 +26 +39 жарко 1018.0 858.3
нст 2 10 км ясно +27.0 +8.0 30 +27 +42 жарко 1017.0 857.9
В 4 10 км 2/2 780 м +28.0 +8.0 28 +28 +33 жарко 1016.0 857.6
ЮВ 3 10 км 2/2 780 м +28.0 +8.0 28 +28 +31 жарко 1016.0 857.6
ЮВ 4 10 км 1/1 800 м
[Cu hum]
+28.0 +8.1 28 +28 +28 жарко 1016.0 848.9 +29.0
ЮВ 3 10 км 5/2 780 м
[Ci]
+26.0 +8.0 32 +26 +26 жарко 1017.0 857.4
ЮВ 2 10 км 2/2 780 м +26.0 +8.0 32 +26 +26 жарко 1017.0 857.4
Ю 2 10 км 3/1 600 м
[Cu med, cong Ci sp]
+24.0 +9.0 38 +25 +25 комфорт 1018.0 857.3 +29.0
Ю 2 10 км 2/2 780 м +23.0 +9.0 41 +24 +24 комфорт 1019.0 857.6
Ю 2 10 км 2/2 780 м +22.0 +8.0 41 +23 +23 комфорт 1019.0 857.1
Ю 3 10 км 3/1 600 м
[Cu med, cong Ci sp]
+21.0 +8.0 43 +23 +23 комфорт 1020.0 857.4
Ю 2 10 км 2/2 780 м +21.0 +9.0 46 +23 +23 комфорт 1019.0 856.6
Ю 2 10 км 2/2 780 м +21.0 +8.0 43 +23 +23 комфорт 1019.0 856.6
СЗ 3 10 км 1/1 800 м
[Cu med, cong Ci sp]
+19.7 +9.4 49 +21 +21 комфорт 1018.0 850.8
З 3 10 км 2/2 780 м +19.0 +9.0 52 +20 +20 1018.0 854.7
СЗ 2 10 км 2/2 780 м +18.0 +10.0 59 +19 +19 1018.0 854.3
СЗ 3 10 км 2/2 780 м +17.0 +10.0 63 +17 +17 1019.0 854.6
З 3 10 км 2/2 780 м +17.0 +10.0 63 +17 +17 1019.0 854.6
нст 1 8000 м 2/2 780 м +17.0 +10.0 63 +18 +19 1020.0 855.4
Ю 2 18 км 3/1 600 м
[Cu med, cong Cs]
+18.0 +11.0 64 +19 +23 1020.0 856.0 +16.6 +29.0
Ю 3 8000 м 2/2 780 м +21.0 +10.0 49 +23 +30 комфорт 1021.0 858.3
ЮВ 4 9000 м 2/2 780 м +23.0 +10.0 44 +25 +33 комфорт 1021.0 859.4
Ю 5 10 км ясно +25.0 +10.0 39 +26 +36 жарко 1021.0 860.4
Ю 4 н/о 2/2 690 м +25.0 +9.0 36 +26 +37 жарко 1020.0 859.5
ЮВ 4 10 км 2/2 780 м +26.0 +10.0 37 +27 +37 жарко
ЮВ 4-9 10 км 3/3 600 м
[Cu med, cong]
+27.6 +9.8 33 +28 +36 жарко 1018.0 850.3
ЮВ 4 н/о 2/2 750 м +28.0 +10.0 32 +28 +34 жарко 1017.0 858.5
Ю 2 10 км 2/2 750 м +28.0 +9.0 30 +28 +32 жарко 1016.0 857.6
В 2 10 км 2/2 750 м +28.0 +9.0 30 +28 +29 жарко 1016.0 857.6
ЮВ 1 10 км 2/2 750 м +27.0 +9.0 32 +27 +27 жарко 1017.0 858.0
ЮВ 2 10 км 5/2 780 м
[Ci]
+25.0 +9.0 36 +26 +26 жарко 1017.0 857.0
В 2 10 км 4/1 800 м
[Sc Ci sp]
+25.0 +9.0 36 +26 +26 жарко 1018.0 857.8 +28.5
Ю 1 10 км 2/2 780 м +24.0 +9.0 38 +25 +25 комфорт 1019.0 858.1
Ю 2 10 км 2/2 780 м +23.0 +10.0 44 +25 +25 комфорт 1019.0 857.7
Ю 2 10 км 3/0
[Ci sp]
+22.1 +10.4 46 +24 +24 комфорт 1019.0 851.6
Ю 3 10 км 5/2 780 м
[Ac]
+22.0 +11.0 50 +24 +24 комфорт 1019.0 857.2
ЮВ 2 10 км 5/2 780 м
[Ac]
+21.0 +11.0 53 +24 +24 комфорт 1019.0 856.7
З 1 10 км 4/1 600 м
[Sc Ac trans]
+19.9 +11.0 56 +22 +22 комфорт 1018.0 850.5
СЗ 2 10 км 2/2 780 м +19.0 +11.0 60 +20 +20 1018.0 854.8
СЗ 3 10 км 2/2 780 м +19.0 +11.0 60 +20 +20 1018.0 854.8
С 1 10 км 1/1 600 м
[Sc Ci sp]
+18.2 +10.6 61 +19 +19 1019.0 851.0
Ю 1 10 км 5/2 750 м
[Ac]
+17.0 +11.0 68 +18 +18 1019.0 854.6
нст 1 8000 м 8/2 780 м
[Ci]
+17.0 +11.0 68 +18 +19 1020.0 855.5
Ю 4 9000 м 5/1 750 м
[Sc Ci sp]
+20.0 +10.8 55 +21 +24 комфорт 1021.0 853.0 +17.6 +28.5
Ю 5 10 км 5/2 750 м
[Ci]
+21.0 +11.0 53 +23 +27 комфорт 1021.0 858.4
ЮВ 4 10 км 5/2 690 м
[Ci]
+22.0 +11.0 50 +24 +31 комфорт 1021.0 858.9
Ю 4 10 км 5/5 750 м
[Ci]
+23.0 +10.0 44 +25 +31 комфорт 1021.0 859.4
ЮВ 5 10 км 5/5 750 м
[Ac]
+25.0 +11.0 41 +26 +32 жарко 1020.0 859.6
ЮВ 5 10 км 5/5 750 м +25.0 +11.0 41 +26 +31 жарко 1019.0 858.7
Ю 3 10 км 5/5 750 м
[Ac]
+25.0 +11.0 41 +26 +32 жарко 1018.0 857.9
З 2 10 км 5/5 750 м
[Ac]
+26.0 +10.0 37 +27 +32 жарко 1017.0 857.5
Ю 4 10 км 8/5 750 м
[Ac]
+26.0 +10.0 37 +27 +28 жарко 1017.0 857.5
ЮВ 2 10 км 5/5 750 м
[Ac]
+25.0 +11.0 41 +26 +27 жарко 1017.0 857.1
ЮВ 2 10 км 5/5 750 м
[Ac]
+25.0 +10.0 39 +26 +26 жарко 1017.0 857.0
ЮВ 2 10 км 5/5 750 м
[Ac]
+24.0 +11.0 44 +25 +25 комфорт 1018.0 857.4
СВ 2 10 км 5/5 750 м
[Ac]
+24.0 +11.0 44 +25 +25 комфорт 1019.0 858.2
В 3 10 км 5/5 750 м
[Ac]
+24.0 +11.0 44 +25 +25 комфорт 1019.0 858.2
С 2 10 км 5/5 750 м +23.0 +11.0 47 +25 +25 комфорт 1020.0 858.6
СЗ 2 10 км 5/5 750 м +23.0 +11.0 47 +25 +25 комфорт 1020.0 858.6
СЗ 3 10 км 5/5 750 м
[Ac]
+22.0 +12.0 53 +24 +24 комфорт 1020.0 858.1
нст 1 10 км 5/5 780 м
[Ac]
+20.0 +12.0 60 +23 +23 комфорт 1019.0 856.2
нст 1 10 км 5/5 780 м
[Ac]
+20.0 +12.0 60 +23 +23 комфорт 1018.0 855.4
З 3 10 км 5/2 780 м
[Ac]
+19.0 +12.0 64 +20 +20 1018.0 854.9
нст 1 10 км 5/2 780 м
[Ac]
+19.0 +12.0 64 +21 +21 комфорт 1018.0 854.9
С 2 10 км 5/2 780 м
[Ac]
+18.0 +12.0 68 +19 +19 1018.0 854.4
З 2 10 км 8/8 750 м
[Ac]
+19.0 +12.0 64 +20 +20 1019.0 855.7
ЮВ 5 10 км 8/8 750 м
[Ac]
+16.0 +12.0 77 +15 +15 1020.0 855.0
нст 1 10 км 2/2 750 м +20.0 +13.0 64 +23 +28 комфорт 1021.0 858.0
ЮВ 2 10 км 2/2 750 м +22.0 +11.0 50 +24 +32 комфорт 1022.0 859.7
Ю 4 10 км 2/2 750 м +23.0 +11.0 47 +25 +34 комфорт 1021.0 859.4
Ю 4 10 км 5/5 750 м +24.0 +10.0 41 +25 +31 комфорт 1021.0 859.9
Ю 3 10 км 5/5 750 м +26.0 +10.0 37 +27 +35 жарко 1020.0 860.0
нст 2 10 км 5/5 750 м
[Ac]
+26.0 +11.0 39 +27 +37 жарко 1018.0 858.4
ЮВ 2 10 км 5/5 750 м
[Ac]
+26.0 +10.0 37 +27 +34 жарко 1017.0 857.5
Ю 3 10 км 8/8 750 м +26.0 +10.0 37 +27 +28 жарко 1016.0 856.7
Ю 3 10 км 8/8 750 м +26.0 +10.0 37 +27 +28 жарко 1016.0 856.7
нст 1 10 км 5/5 750 м +27.0 +10.0 34 +27 +28 жарко 1016.0 857.2
ЮВ 2 10 км 5/2 750 м
[Ci]
+25.0 +10.0 39 +26 +26 жарко 1016.0 856.2
СВ 3 10 км 5/5 750 м
[Ac]
+24.0 +11.0 44 +25 +25 комфорт 1017.0 856.6
СВ 3 10 км 5/5 750 м +24.0 +11.0 44 +25 +25 комфорт 1018.0 857.4
С 3 10 км 5/5 750 м
[Ac]
+24.0 +11.0 44 +25 +25 комфорт 1019.0 858.2
СВ 3 10 км 5/5 750 м
[Ac]
+24.0 +11.0 44 +25 +25 комфорт 1019.0 858.2
С 2 10 км 5/5 750 м
[Ac]
+23.0 +11.0 47 +25 +25 комфорт 1020.0 858.6
СЗ 2 10 км 5/5 750 м
[Ac]
+23.0 +11.0 47 +25 +25 комфорт 1020.0 858.6
СЗ 2 10 км 8/5 750 м
[Ac]
+23.0 +12.0 50 +26 +26 жарко 1019.0 857.8
штиль 0 10 км 9/4 750 м
[Cu med, cong Ac trans]
+22.0 +12.0 53 +24 +24 комфорт 1019.0 857.3
С 2 10 км 5/5 750 м
[Ac]
+22.0 +13.0 57 +25 +25 комфорт 1019.0 857.3
СЗ 3 10 км 5/5 750 м
[Ac]
+22.0 +13.0 57 +25 +25 комфорт 1019.0 857.3
З 3 10 км 5/5 750 м
[Ac]
+21.0 +13.0 60 +24 +24 комфорт 1019.0 856.8
СЗ 4 10 км 5/5 750 м
[Ac]
+20.0 +13.0 64 +22 +22 комфорт 1019.0 856.3
СЗ 2 10 км 5/5 750 м
[Ac]
+21.0 +13.0 60 +24 +25 комфорт 1020.0 857.7
З 2 10 км 5/5 750 м
[Ac]
+22.0 +13.0 57 +25 +27 комфорт 1020.0 858.2
С 2 10 км 5/5 750 м
[Ac]
+24.0 +14.0 54 +26 +32 жарко 1020.0 859.2
С 3 10 км 8/5 750 м
[Ac]
+25.0 +13.0 47 +27 +31 жарко 1021.0 860.5
нст 2 10 км 5/5 750 м
[Ac]
+26.0 +13.0 45 +28 +37 жарко 1020.0 860.2
ЮЗ 3 10 км 8/8 750 м
[Ac]
+27.0 +12.0 39 +28 +32 жарко 1019.0 859.8
Ю 5 10 км 8/8 750 м
[Ac]
+27.0 +12.0 39 +28 +30 жарко 1018.0 858.9
Ю 5 10 км 5/5 750 м
[Ac]
+28.0 +12.0 37 +29 +33 жарко 1017.0 858.6
ЮЗ 3 10 км 5/5 750 м
[Ac]
+27.0 +11.0 37 +28 +32 жарко 1015.0 856.4
нст 2 10 км 5/5 750 м +29.0 +12.0 35 +30 +32 жарко 1014.0 856.5
нст 1 10 км 5/5 750 м +28.0 +12.0 37 +29 +30 жарко 1014.0 856.1
Ю 2 10 км 5/5 750 м +27.0 +11.0 37 +28 +28 жарко 1015.0 856.4
ЮЗ 1 10 км 5/5 750 м
[Ac]
+26.0 +11.0 39 +27 +27 жарко 1016.0 856.7
С 3 10 км 8/8 690 м +26.0 +13.0 45 +28 +28 жарко 1017.0 857.7
С 7 10 км слаб. дождь 8/8 690 м
[Ns]
+20.0 +16.0 78 +22 +22 комфорт 1018.0 855.6
С 2 10 км 8/8 750 м
[Ac]
+19.0 +15.0 78 +21 +21 комфорт 1021.0 857.6
Местоположение метеостанции Кигали (Руанда): широта -1.97 долгота 30.14 высота над уровнем моря 1481 м.
В архиве по умолчанию представлена погода в Кигали за последнюю неделю. Архивные данные за месяц целиком и за предыдущие месяцы, начиная с января 2011 года, Вы можете получить, выбрав интересующий диапазон дат из раскрывающегося списка и нажав кнопку "Найти!".
*Определитесь, кто Вы:
Внимание! Время в таблицах - всемирное. Для получения местного времени необходимо прибавить поправку, которая равна 2 ч.
Смотрите также архив погоды в соседних городах и на ближайших метеорологических станциях:
Партнеры нашего сайта:      
Пояснения к столбцам:
  • Ветер - указаны скорость ветра в м/с - средняя за 10 мин, порывы в срок и между сроками (в фигурных скобках) и направление, откуда дует ветер: С - северный,
  • СВ - северо-восточный, В - восточный, ЮВ - юго-восточный, Ю - южный, ЮЗ - юго-западный, З - западный, СЗ - северо-западный.
  • Видимость - горизонтальная дальность видимости в метрах или километрах. При видимости от 1 до 10 км при отсутствии осадков обычно наблюдается дымка, при ухудшении видимости до 1 км и менее - туман. В сухую погоду видимость может ухудшаться дымом, пылью или мглою.
  • Явления - указаны атмосферные явления, наблюдавшиеся в срок или в последний час перед сроком; фигурными скобками обозначены явления, наблюдавшиеся между сроками (за 1-3 часа до срока); квадратными скобками обозначены град или гололедные отложения с указанием их диаметра в мм.
  • Облачность - указаны через наклонную черту общая и нижняя облачность в баллах и высота нижней границы облаков в метрах; квадратными скобками обозначены формы облаков: Ci - перистые, Cs - перисто-слоистые, Cc - перисто-кучевые, Ac - высококучевые, As - высокослоистые, Sc - слоисто-кучевые, Ns - слоисто-дождевые, Cu - кучевые, Cb - кучево-дождевые. Подробнее классификацию облаков см. в Атласе облаков (PDF).
  • T - Температура воздуха - температура, измеренная на высоте 2 м над землей.
  • Td - Температура точки росы - температура, при понижении до которой содержащийся в воздухе водяной пар достигнет насыщения.
  • f - Относительная влажность воздуха - влажноcть воздуха, измеренная на высоте 2 м над землей.
  • Te - Эффективная температура - температура, которую ощущает одетый по сезону человек в тени. Характеристика душности погоды. При расчете учитывается влияние влажности воздуха и скорости ветра на теплоощущения человека.
  • Tes - Эффективная температура на солнце - температура, которую ощущает человек, с поправкой на солнечный нагрев. Характеристика знойности погоды. Зависит от высоты солнца над горизонтом, облачности и скорости ветра. Ночью, в пасмурную погоду, а также при ветре 12 м/с и более поправка равна нулю.
  • P - Атмосферное давление - приведенное к уровню моря атмосферное давление.
  • Po - Атмосферное давление - измеренное на уровне метеостанции атмосферное давление.
  • Tmin - Минимальная температура - минимум температуры воздуха на высоте 2 м над землей.
  • Tmax - Максимальная температура - максимум температуры воздуха на высоте 2 м над землей.
  • R - Количество осадков - Количество выпавших осадков за период времени, мм. При наведении курсора мыши на число - период времени, за который выпало указанное количество осадков.
  • R24 - Количество осадков - Количество выпавших осадков за 24 часа, мм.
  • S - Снежный покров - Высота снежного покрова, см. При наведении курсора мыши на число - состояние снежного покрова и степень покрытия местности в баллах.